This is the latest recevied weather packets stored in our database for station/object W3BRL. If no packets are shown the sender has not sent any weather packets the latest 10 day(s).
| Time | Temp. | Humidity | Pressure | Rain* | Wind** | Luminosity | Snow |
|---|---|---|---|---|---|---|---|
| 1777474456 | 14.44° C | 98% | 1007.4 hPa | 0 mm | - | 182 W/m² | - |
| 1777474152 | 14.44° C | 98% | 1007.7 hPa | 0 mm | - | 77 W/m² | - |
| 1777473850 | 14.44° C | 98% | 1007.6 hPa | 0 mm | - | 41 W/m² | - |
| 1777473548 | 14.44° C | 98% | 1007.6 hPa | 0 mm | - | 38 W/m² | - |
| 1777473248 | 14.44° C | 98% | 1007.5 hPa | 0 mm | - | 58 W/m² | - |
| 1777472944 | 14.44° C | 98% | 1007.6 hPa | 0 mm | - | 86 W/m² | - |
| 1777472641 | 14.44° C | 98% | 1007.7 hPa | 0 mm | - | 77 W/m² | - |
| 1777472337 | 14.44° C | 98% | 1007.7 hPa | 0 mm | - | 94 W/m² | - |
| 1777472035 | 13.89° C | 98% | 1007.3 hPa | 0 mm | - | 134 W/m² | - |
| 1777471730 | 13.89° C | 98% | 1007.2 hPa | 0 mm | - | 189 W/m² | - |
| 1777471427 | 13.89° C | 98% | 1007.4 hPa | 0 mm | - | 143 W/m² | - |
| 1777471124 | 13.89° C | 98% | 1007.4 hPa | 1.78 mm | - | 145 W/m² | - |
| 1777470821 | 13.89° C | 98% | 1007.3 hPa | 1.78 mm | - | 117 W/m² | - |
| 1777470518 | 13.89° C | 98% | 1007.4 hPa | 1.27 mm | - | 52 W/m² | - |
| 1777470214 | 13.89° C | 98% | 1007.6 hPa | 4.32 mm | - | 38 W/m² | - |
| 1777469910 | 13.89° C | 98% | 1007.8 hPa | 6.1 mm | - | 30 W/m² | - |
| 1777469606 | 13.89° C | 98% | 1008 hPa | 7.11 mm | - | 22 W/m² | - |
| 1777469306 | 13.89° C | 98% | 1008.6 hPa | 7.11 mm | - | 16 W/m² | - |
| 1777469002 | 13.89° C | 98% | 1009.3 hPa | 13.72 mm | - | 14 W/m² | - |
| 1777468697 | 13.89° C | 98% | 1009.1 hPa | 15.49 mm | - | 12 W/m² | - |
| 1777468394 | 13.33° C | 98% | 1009.2 hPa | 8.89 mm | - | 10 W/m² | - |
| 1777468090 | 12.78° C | 98% | 1009.2 hPa | 6.1 mm | - | 9 W/m² | - |
| 1777467786 | 12.78° C | 98% | 1009 hPa | 1.78 mm | - | 9 W/m² | - |
| 1777467487 | 12.78° C | 98% | 1008.6 hPa | 0 mm | - | 10 W/m² | - |
| 1777467182 | 12.78° C | 98% | 1008.3 hPa | 0 mm | - | 7 W/m² | - |
* Rain latest hour (hover to see other rain measurements)
** Current wind speed in m/s (hover to see current wind gust speed)